Regional Weather Roundup
Issued by NWS

Home | Current Version | Previous Version | Text Only | Print | Product List | Glossary Off
Versions: 1 2 3 4 5 6 7 8 9 10 11 12 13 14 15 16 17 18 19 20 21 22 23 24 25 26 27 28 29 30 31 32 33 34 35 36 37 38 39 40 41 42 43 44 45 46 47 48 49 50

000
ASUS43 KDMX 272307
RWRIA

WEATHER ROUNDUP FOR IOWA
NATIONAL WEATHER SERVICE DES MOINES IA
500 PM CST TUE JAN 27 2015

NOTE: "FAIR" INDICATES FEW OR NO CLOUDS BELOW 12,000 FEET WITH NO
SIGNIFICANT WEATHER AND/OR OBSTRUCTIONS TO VISIBILITY.

* - THESE STATIONS ARE NOT NWS STATIONS...THUS NOT UNDER NWS
QUALITY CONTROL.  THEY ALSO DO NOT REPORT WEATHER SUCH
AS PRECIPITATION OR FOG.

IAZ001>003-012>014-020>022-031>034-043>046-280000-
   NORTHWEST IOWA

CITY           SKY/WX    TMP DP  RH WIND       PRES   REMARKS
CARROLL *      CLEAR     43  34  70 SE9       30.08S
CHEROKEE *     CLEAR     43  37  81 SE6       30.05F
DENISON *      CLEAR     46  34  61 SE8       30.03F
LE MARS *      CLEAR     45  37  76 SE7       30.03S
ORANGE CITY *  CLEAR     43  36  75 SE7       30.02F
SHELDON *      CLEAR     41  37  87 SE12      30.02F
SIOUX CITY     CLEAR     48  36  63 SE9       30.02F
SPENCER        PTCLDY    41  34  76 SE13      30.07F
STORM LAKE *   CLEAR     39  36  87 SE10      30.06S WCI  32
$$

IAZ055>058-069>071-079>083-090>094-280000-
   SOUTHWEST IOWA

CITY           SKY/WX    TMP DP  RH WIND       PRES   REMARKS
ATLANTIC *     CLEAR     48  32  53 SE6G14    30.06S
AUDUBON *      CLEAR     45  34  65 SE8       30.08S
CLARINDA *     CLEAR     50  30  46 SE7       30.08S
COUNCIL BLFS * CLEAR     50  32  50 SE13      30.03S
CRESTON *      CLEAR     45  32  61 SE9       30.09S
HARLAN  *      CLEAR     46  36  66 SE10      30.09S
LAMONI         CLEAR     47  30  51 SE5       30.10S
RED OAK *      CLEAR     50  30  46 SE8       30.06S
SHENANDOAH *   CLEAR     52  32  46 SE10      30.06S
$$

IAZ047>049-059>061-072>074-084-280000-
   CENTRAL IOWA

CITY           SKY/WX    TMP DP  RH WIND       PRES   REMARKS
AMES           CLEAR     39  31  72 E12       30.13S WCI  32
ANKENY *       CLEAR     39  32  75 E13       30.14S WCI  32
CHARITON *     CLEAR     43  32  65 E7        30.13S
DES MOINES     PTCLDY    43  31  62 SE10      30.13S
GRINNELL*      CLOUDY    34  30  86 E8        30.18R WCI  27
KNOXVILLE *    CLEAR     39  30  70 E9G16     30.14S WCI  33
MARSHALLTOWN   CLOUDY    33  29  85 E13       30.16R WCI  24
PELLA *        CLEAR     37  30  75 E8        30.18R WCI  31
PERRY *          N/A     43  34  70 SE9       30.10F
$$

IAZ004>006-015-016-023>025-035-036-280000-
   NORTH CENTRAL IOWA

CITY           SKY/WX    TMP DP  RH WIND       PRES   REMARKS
ALGONA *       CLOUDY    37  34  87 SE9       30.11F WCI  31
CLARION *      CLOUDY    36  34  93 SE12      30.13S WCI  27
ESTHERVILLE    CLOUDY    36  33  89 SE13      30.08F WCI  27
FORT DODGE *   CLEAR     39  32  75 E9        30.11S WCI  33
MASON CITY     CLOUDY    33  28  81 SE10      30.15S WCI  25
FOREST CITY *  CLOUDY    34  30  86 SE8       30.13S WCI  27
IOWA FALLS *   CLOUDY    34  30  86 E10       30.16R WCI  26
$$

IAZ007>011-017>019-026>030-037>042-050>054-066-280000-
   NORTHEAST IOWA

CITY           SKY/WX    TMP DP  RH WIND       PRES   REMARKS
CEDAR RAPIDS   CLOUDY    31  25  78 E6        30.19S WCI  25
CHARLES CITY * CLOUDY    32  30  93 SE6       30.17S WCI  26
CLINTON *      CLOUDY    27  21  80 CALM      30.26S
DECORAH *      CLOUDY    28  23  80 E6        30.18S WCI  22
DUBUQUE        CLOUDY    26  20  77 E5        30.21S WCI  20
MONTICELLO *   CLOUDY    28  25  86 CALM      30.22S
OELWEIN *      CLOUDY    30  25  80 E5        30.19S WCI  25
WATERLOO       CLOUDY    31  26  82 E8        30.18S WCI  23
$$

IAZ064-065-067-068-078-280000-
   EAST CENTRAL IOWA

CITY           SKY/WX    TMP DP  RH WIND       PRES   REMARKS
DAVENPORT      CLOUDY    27  20  75 E6        30.23S WCI  20
IOWA CITY      CLOUDY    31  25  78 E8        30.23S WCI  23
MT. PLEASANT * CLOUDY    30  27  86 E9        30.21S FOG     WCI  22
MUSCATINE *    CLOUDY    30  25  80 NE7       30.24S WCI  23
QUAD CITIES    CLOUDY    28  22  78 E8        30.24R WCI  20
$$

IAZ062-063-075>077-085>089-095>099-280000-
   SOUTHEAST IOWA

CITY           SKY/WX    TMP DP  RH WIND       PRES   REMARKS
BURLINGTON     CLOUDY    31  26  82 E7        30.21S WCI  24
FAIRFIELD *    CLOUDY    34  27  75 E10       30.20R WCI  26
FORT MADISON * CLOUDY    30  27  86 E10       30.21F WCI  21
KEOKUK *       CLOUDY    34  28  80 E10       30.20R WCI  26
OSKALOOSA *      N/A     34  28  80 E8        30.19R WCI  27
CENTERVILLE *  CLEAR     41  32  70 E8        30.16R
OTTUMWA        CLEAR     35  28  75 E8        30.18R WCI  29
WASHINGTON *   CLOUDY    32  32 100 E9        30.21S WCI  24
$$

ABBREVIATIONS USED IN REMARKS
   TC - TEMPERATURES IN CELSIUS
  WCI - WIND CHILL INDEX
   HX - HEAT INDEX
  VSB - VISIBILITY
$$



USA.gov is the U.S. government's official web portal to all federal, state and local government web resources and services.